Location: Melizzano
(41.1500°N, 14.5000°E)
Time: 03:34:44
(UTC+00:00)

BREEZE-M R/B - Pass Details

Date: 11 May 2021
Orbit: 311 x 4502 km, 49.7° (Epoch: 14 June)

Event Time Altitude Azimuth Distance (km) Brightness Sun altitude
Rises 18:38:32 0° 246° (WSW) 2,854 7.0 -5.7°
Reaches altitude 10° 18:41:16 10° 251° (WSW) 1,597 5.8 -6.1°
Maximum altitude 18:44:25 54° 330° (NNW) 432 2.7 -6.6°
Drops below altitude 10° 18:46:49 10° 50° (NE) 1,210 4.4 -7.0°
Sets 18:48:37 0° 56° (NE) 2,048 5.5 -7.3°
